Regional Weather Roundup
Issued by NWS State College, PA

Home | Current Version | Previous Version | Text Only | Print | Product List | Glossary Off
Versions: 1 2 3 4 5 6 7 8 9 10 11 12 13 14 15 16 17 18 19 20 21 22 23 24 25 26 27 28 29 30 31 32 33 34 35 36 37 38 39 40 41 42 43 44 45 46 47 48 49 50

975
ASUS41 KCTP 230903
RWRCTP

REGIONAL WEATHER ROUNDUP
NATIONAL WEATHER SERVICE STATE COLLEGE PA
500 AM EDT THU MAR 23 2017

Note: "fair" indicates few or no clouds below 12,000 feet with no
significant weather and/or obstructions to visibility.

* = STATION THAT DOES NOT REPORT PRECIPITATION /E.G. RAIN...SNOW...ETC/
    THUNDER OR FOG.

PAZ002>004-007>009-013>016-020>023-029>032-231000-
WESTERN PENNSYLVANIA

CITY           SKY/WX    TMP DP  RH WIND       PRES   REMARKS
ERIE           CLEAR     18  14  84 S3        30.55S
MEADVILLE      CLEAR     18  11  74 CALM      30.50R
FRANKLIN*      CLEAR     16   5  62 CALM      30.50S
NEW CASTLE     FAIR      14  11  87 CALM      30.54R
BEAVER COUNTY  NOT AVBL
BUTLER*        CLEAR     16  10  79 CALM      30.52S
PITTSBURGH INT CLEAR     21  10  62 N5        30.52R WCI  15
PITTSBURGH     CLEAR     21   5  50 NE3       30.50R
INDIANA*       CLEAR     16  10  79 CALM      30.54R
LATROBE        CLEAR     18   9  68 CALM      30.53R
WASHINGTON CO* CLEAR     14   7  73 CALM      30.52R
$$

PAZ004>006-010>012-017>019-024>028-033>037-041-042-045-046-049>053-231000-
CENTRAL PENNSYLVANIA

CITY           SKY/WX    TMP DP  RH WIND       PRES   REMARKS
BRADFORD       CLEAR     10   7  87 CALM      30.43R
DUBOIS         CLEAR     14   5  67 CALM      30.46R
CLEARFIELD       N/A    N/A N/A N/A MISG      30.49R
JOHNSTOWN      CLEAR     16   4  59 NE3       30.42R
ALTOONA        CLEAR     21   4  47 W3        30.49R
STATE COLLEGE  CLEAR     19   5  55 CALM      30.50R
WILLIAMSPORT   CLEAR     22   6  50 W3        30.54R
SELINSGROVE    PTCLDY    17  11  77 N6        30.55R WCI   9
FT INDIANTOWN  PTCLDY    24   2  39 NW6       30.54R
CAPITAL CITY   PTCLDY    28   2  32 N6        30.55R
HARRISBURG     CLEAR     24   6  46 N6        30.55R
YORK           CLEAR     17  12  80 CALM      30.54R
$$

PAZ038>040-043-044-047-048-054-055-060>062-067>071-231000-
EASTERN PENNSYLVANIA

CITY           SKY/WX    TMP DP  RH WIND       PRES   REMARKS
SCRANTON       CLEAR     18   5  57 NW5       30.48R WCI  11
MOUNT POCONO   CLEAR     12   4  70 N9        30.37R WCI   0
ALLENTOWN      CLEAR     20   4  50 W6        30.52R WCI  12
QUAKERTOWN*    SUNNY     19   5  53 NW3       30.52R
READING        CLEAR     23   4  44 W3        30.54R
LANCASTER      CLEAR     24   5  44 NW5       30.54R
COATESVILLE    SUNNY     21   3  45 CALM      30.53R
POTTSTOWN      CLEAR     19   4  51 NW3       30.55R
BLUE BELL      CLEAR     21   7  53 NW3       30.53R
DOYLESTOWN     CLEAR     18   6  59 NW3       30.51R
WILLOW GROVE   NOT AVBL
NORTH PHILA    CLEAR     23   6  48 NW7       30.55R WCI  15
PHILADELPHIA   CLEAR     24   4  42 N7        30.56R
$$




USA.gov is the U.S. government's official web portal to all federal, state and local government web resources and services.